Weather reports worldwide

Advertisment
Görlitz, Germany (10499): temperature & dewpoint: 12.01.2020 12:00:00 - 18.01.2020 12:00:00 (CET)Görlitz, Germany (10499): temperature 5cm & temperature -5cm: 12.01.2020 12:00:00 - 18.01.2020 12:00:00 (CET)Görlitz, Germany (10499): temperature -20cm & temperature -100cm: 12.01.2020 12:00:00 - 18.01.2020 12:00:00 (CET)Görlitz, Germany (10499): wind speed & gusts: 12.01.2020 12:00:00 - 18.01.2020 12:00:00 (CET)Görlitz, Germany (10499): wind direction: 12.01.2020 12:00:00 - 18.01.2020 12:00:00 (CET)Görlitz, Germany (10499): reduced air pressure: 12.01.2020 12:00:00 - 18.01.2020 12:00:00 (CET)Görlitz, Germany (10499): visibility: 12.01.2020 12:00:00 - 18.01.2020 12:00:00 (CET)Görlitz, Germany (10499): sunshine duration: 12.01.2020 12:00:00 - 18.01.2020 12:00:00 (CET)Görlitz, Germany (10499): precipitation: 12.01.2020 12:00:00 - 18.01.2020 12:00:00 (CET)
Date & Time tt [°C] td [°C] tt 5cm [°C] tt -5cm [°C] tt -20cm [°C] tt -100cm [°C] ff [km/h] ff [kn] fx [km/h] fx [kn] dd ppp [hPa] vv [km] sd [min] rr [mm]
18.01.2020 12:00:00 5,0 1,2 5,4 3,0 2,9 5,6 9 5 18 10 WSW 1024,8 25 0 0,0
18.01.2020 11:00:00 4,2 1,1 4,2 2,6 2,8 5,6 14 8 24 13 WSW 1025,0 21 0 0,0
18.01.2020 10:00:00 3,7 1,1 3,6 2,2 2,8 5,6 16 9 23 12 WSW 1024,8 18 0 0,0
18.01.2020 09:00:00 2,6 0,7 2,4 2,0 2,8 5,6 13 7 25 14 SW 1024,5 15 0 0,0
18.01.2020 08:00:00 2,1 0,3 1,7 2,0 2,8 5,6 18 10 26 14 SW 1023,8 14 0 0,0
18.01.2020 07:00:00 2,2 0,5 1,8 2,1 2,8 5,6 13 7 24 13 SSW 1023,2 14 0 0,0
18.01.2020 06:00:00 2,2 0,3 1,6 2,0 2,8 5,6 14 7 26 14 SSW 1022,9 13 0 0,0
18.01.2020 05:00:00 2,3 -0,1 2,0 1,9 2,8 5,6 16 9 35 19 S 1022,4 15 0 0,0
18.01.2020 04:00:00 1,9 -0,3 1,8 1,9 2,8 5,7 27 15 40 22 SSW 1021,8 12 0 0,0
18.01.2020 03:00:00 2,0 -0,4 1,9 1,8 2,8 5,7 27 14 36 20 SSW 1021,6 13 0 0,0
18.01.2020 02:00:00 2,1 -0,5 1,8 1,7 2,8 5,7 23 12 44 24 SSW 1021,1 13 0 0,0
18.01.2020 01:00:00 2,2 -0,1 1,3 1,6 2,9 5,7 25 13 51 28 S 1020,2 12 0 0,0
18.01.2020 00:00:00 1,8 -0,3 1,1 1,7 2,9 5,7 35 19 49 26 S 1020,3 10 0 0,0
17.01.2020 23:00:00 1,4 -0,3 0,5 1,7 3,0 5,7 32 17 51 28 S 1020,1 9 0 0,0
17.01.2020 22:00:00 1,6 -0,4 0,6 1,9 3,1 5,7 33 18 54 29 S 1019,9 9 0 0,0
17.01.2020 21:00:00 2,2 -0,4 1,2 2,1 3,2 5,7 36 19 59 32 S 1019,4 11 0 0,0
17.01.2020 20:00:00 3,1 -0,2 2,1 2,3 3,2 5,7 37 20 61 33 S 1018,9 14 0 0,0
17.01.2020 19:00:00 4,0 0,4 2,6 2,5 3,3 5,7 26 14 45 25 SSW 1018,4 20 0 0,0
17.01.2020 18:00:00 4,5 0,7 3,0 2,8 3,3 5,7 26 14 40 22 S 1018,4 23 0 0,0
17.01.2020 17:00:00 4,9 0,7 3,2 3,2 3,3 5,7 20 11 35 19 S 1018,4 28 3 0,0
17.01.2020 16:00:00 6,1 0,9 4,9 3,6 3,1 5,7 21 11 45 24 S 1018,8 34 56 0,0
17.01.2020 15:00:00 6,7 1,3 6,4 3,7 3,0 5,7 19 10 50 27 SSE 1019,1 39 34 0,0
17.01.2020 14:00:00 7,3 1,5 7,7 3,6 2,7 5,7 26 14 53 29 S 1019,9 46 34 0,0
17.01.2020 13:00:00 8,4 1,9 9,1 3,2 2,5 5,7 31 17 51 27 S 1020,7 56 40 0,0
17.01.2020 12:00:00 8,8 2,0 9,4 2,3 2,4 5,7 26 14 46 25 S 1021,6 54 60 0,0
17.01.2020 11:00:00 8,5 2,2 8,4 1,2 2,5 5,7 31 17 48 26 S 1022,5 72 38 0,0
17.01.2020 10:00:00 6,9 2,0 6,6 1,1 2,5 5,7 14 8 25 13 SSE 1023,5 40 60 0,0
17.01.2020 09:00:00 3,2 0,6 2,0 1,2 2,5 5,7 4 2 10 5 E 1024,5 21 41 0,0
17.01.2020 08:00:00 1,8 0,7 -0,9 1,2 2,6 5,7 8 4 14 8 SSE 1025,0 10 0 0,0
17.01.2020 07:00:00 0,8 0,4 -2,0 1,2 2,6 5,7 11 6 14 7 SE 1025,5 6 0 0,0
17.01.2020 06:00:00 1,4 0,7 0,1 1,3 2,7 5,7 12 7 14 8 ESE 1026,0 8 0 0,0
17.01.2020 05:00:00 2,5 1,5 -0,4 1,3 2,8 5,7 6 4 16 8 SE 1026,2 12 0 0,0
17.01.2020 04:00:00 2,4 1,0 0,1 1,4 2,8 5,7 13 7 21 11 SSE 1027,1 13 0 0,0
17.01.2020 03:00:00 4,7 2,1 2,1 1,4 2,9 5,7 14 7 23 12 S 1027,8 24 0 0,0
17.01.2020 02:00:00 4,6 1,8 2,2 1,5 2,9 5,7 14 7 24 13 S 1028,4 23 0 0,0
17.01.2020 01:00:00 5,0 2,1 2,6 1,6 3,0 5,7 18 10 24 13 S 1029,0 23 0 0,0
17.01.2020 00:00:00 3,3 1,5 0,1 1,6 3,1 5,7 10 6 22 12 S 1029,5 18 0 0,0
16.01.2020 23:00:00 4,6 2,1 2,1 1,7 3,2 5,7 15 8 25 14 S 1029,7 20 0 0,0
16.01.2020 22:00:00 2,6 0,8 -1,0 1,9 3,4 5,7 3 2 11 6 S 1030,5 11 0 0,0
16.01.2020 21:00:00 3,1 0,8 -0,4 2,1 3,5 5,7 6 3 15 8 SSW 1030,7 14 0 0,0
16.01.2020 20:00:00 2,3 0,0 -0,1 2,5 3,6 5,7 4 2 16 8 ESE 1031,0 11 0 0,0
16.01.2020 19:00:00 2,2 -0,3 0,1 2,9 3,7 5,7 10 6 16 9 S 1031,1 12 0 0,0
16.01.2020 18:00:00 4,2 0,5 1,9 3,5 3,7 5,7 10 6 24 13 S 1030,9 16 0 0,0
16.01.2020 17:00:00 5,3 1,4 1,8 4,1 3,7 5,7 4 2 12 6 S 1030,8 19 16 0,0
16.01.2020 16:00:00 6,3 1,7 5,7 4,7 3,5 5,7 11 6 21 11 SSW 1030,4 20 60 0,0
16.01.2020 15:00:00 8,5 2,1 8,8 4,9 3,2 5,7 8 4 20 11 SSW 1030,1 21 60 0,0
16.01.2020 14:00:00 8,7 1,9 10,2 4,5 3,0 5,8 8 4 17 9 SW 1030,2 22 60 0,0
16.01.2020 13:00:00 7,5 1,4 9,2 3,8 2,7 5,8 14 8 19 11 S 1030,9 20 60 0,0
16.01.2020 12:00:00 7,0 1,3 8,6 2,9 2,6 5,8 9 5 19 11 S 1031,0 20 24 0,0
16.01.2020 11:00:00 4,7 0,7 5,3 2,2 2,5 5,8 15 8 25 14 SW 1031,3 17 44 0,0
16.01.2020 10:00:00 3,4 -0,4 3,6 1,6 2,5 5,8 19 10 25 14 SW 1031,1 17 3 0,0
16.01.2020 09:00:00 2,6 -0,7 2,3 1,3 2,5 5,8 15 8 26 14 SW 1030,8 14 0 0,0
16.01.2020 08:00:00 2,3 -0,9 1,9 1,2 2,5 5,8 17 9 25 14 SSW 1030,0 15 0 0,0
16.01.2020 07:00:00 2,3 -0,9 1,9 1,2 2,5 5,8 15 8 29 16 SSW 1029,1 15 0 0,0
16.01.2020 06:00:00 1,9 -1,3 1,5 1,2 2,5 5,8 19 10 29 16 SW 1028,1 15 0 0,0
16.01.2020 05:00:00 1,8 -1,3 1,5 1,2 2,6 5,8 23 12 35 19 SSW 1027,3 15 0 0,0
16.01.2020 04:00:00 1,6 -1,5 1,3 1,2 2,6 5,8 24 13 37 20 SSW 1026,6 15 0 0,0
16.01.2020 03:00:00 1,1 -1,8 0,8 1,2 2,7 5,8 26 14 48 26 SW 1026,1 15 0 0,0
16.01.2020 02:00:00 0,6 -2,0 0,1 1,3 2,7 5,8 33 18 52 28 SSW 1025,5 14 0 0,0
16.01.2020 01:00:00 0,5 -2,2 -0,1 1,3 2,8 5,8 38 20 53 29 SSW 1024,6 14 0 0,0
16.01.2020 00:00:00 0,6 -2,3 -0,2 1,4 2,9 5,8 29 16 54 29 SSW 1024,2 16 0 0,0
15.01.2020 23:00:00 0,5 -2,5 -0,2 1,4 3,0 5,8 38 21 56 30 SSW 1023,7 15 0 0,0
15.01.2020 22:00:00 0,7 -2,6 -0,1 1,5 3,1 5,8 40 22 56 30 SSW 1023,1 16 0 0,0
15.01.2020 21:00:00 0,5 -2,7 -0,3 1,6 3,2 5,8 34 19 64 35 SSW 1023,2 15 0 0,0
15.01.2020 20:00:00 0,8 -2,8 -0,1 1,8 3,3 5,8 33 18 48 26 SSW 1021,9 15 0 0,0
15.01.2020 19:00:00 1,7 -2,5 0,2 2,2 3,4 5,8 18 10 40 22 S 1021,4 16 0 0,0
15.01.2020 18:00:00 2,4 -2,5 0,9 2,6 3,4 5,8 14 8 35 19 SSW 1020,9 17 0 0,0
15.01.2020 17:00:00 3,1 -2,3 2,1 2,9 3,4 5,8 13 7 55 30 S 1020,3 19 0 0,0
15.01.2020 16:00:00 3,6 -2,3 2,7 3,2 3,4 5,8 22 12 52 28 SSW 1020,2 20 31 0,0
15.01.2020 15:00:00 4,4 -2,4 3,9 3,4 3,3 5,8 43 23 57 31 SSW 1018,9 20 0 0,0
15.01.2020 14:00:00 4,9 -2,1 4,8 3,5 3,2 5,8 37 20 54 29 SSW 1018,8 23 0 0,0
15.01.2020 13:00:00 5,7 -2,5 5,6 3,4 3,1 5,8 32 17 50 27 SSW 1019,0 31 0 0,0
15.01.2020 12:00:00 5,6 -2,9 5,7 3,1 3,0 5,8 26 14 50 27 S 1019,5 31 34 0,0
15.01.2020 11:00:00 5,0 -3,0 5,2 2,5 3,0 5,8 36 19 55 30 SSW 1019,9 32 53 0,0
15.01.2020 10:00:00 4,5 -3,1 5,1 2,1 2,9 5,9 36 19 54 29 S 1019,6 31 25 0,0
15.01.2020 09:00:00 3,9 -3,4 3,4 2,0 3,0 5,8 37 20 54 29 SSW 1019,7 32 0 0,0
15.01.2020 08:00:00 4,5 -3,2 3,7 1,9 3,0 5,9 31 17 51 28 S 1019,1 34 0 0,0
15.01.2020 07:00:00 4,0 -3,6 3,0 1,9 3,0 5,9 33 18 52 28 S 1019,0 39 0 0,0
15.01.2020 06:00:00 4,6 -3,1 3,4 2,0 3,0 5,8 36 19 61 33 S 1018,3 38 0 0,0
15.01.2020 05:00:00 4,3 -3,1 3,5 2,0 3,1 5,8 42 23 63 34 S 1018,4 36 0 0,0
15.01.2020 04:00:00 4,5 -2,8 3,7 2,0 3,1 5,9 37 20 64 35 SSW 1018,2 39 0 0,0
15.01.2020 03:00:00 4,2 -3,0 3,1 2,0 3,2 5,9 41 22 62 34 S 1018,0 35 0 0,0
15.01.2020 02:00:00 4,4 -2,8 3,3 2,1 3,2 5,9 50 27 69 38 S 1017,6 37 0 0,0
15.01.2020 01:00:00 3,7 -2,5 2,8 2,1 3,3 5,9 41 22 59 32 SSW 1017,1 35 0 0,0
15.01.2020 00:00:00 3,1 -2,0 2,2 2,3 3,3 5,9 37 20 57 31 S 1017,3 28 0 0,0
14.01.2020 23:00:00 2,7 -1,5 1,9 2,4 3,3 5,9 28 15 57 31 S 1017,2 26 0 0,0
14.01.2020 22:00:00 3,3 -1,3 2,7 2,5 3,4 5,9 40 21 62 33 S 1017,5 28 0 0,0
14.01.2020 21:00:00 3,2 -0,8 2,8 2,5 3,4 5,9 36 20 61 33 S 1017,6 25 0 0,0
14.01.2020 20:00:00 3,5 -0,7 2,9 2,6 3,4 5,9 42 23 63 34 S 1017,4 24 0 0,0
14.01.2020 19:00:00 3,4 -0,6 2,8 2,7 3,5 5,9 37 20 59 32 S 1017,3 25 0 0,0
14.01.2020 18:00:00 4,0 -0,4 3,4 2,8 3,5 5,9 44 24 59 32 S 1016,7 26 0 0,0
14.01.2020 17:00:00 3,4 -0,5 2,7 3,0 3,5 5,9 37 20 63 34 S 1016,6 28 0 0,0
14.01.2020 16:00:00 4,2 -0,4 3,8 3,2 3,5 5,9 43 23 65 35 SSW 1016,2 36 0 0,0
14.01.2020 15:00:00 3,8 -0,3 3,6 3,4 3,4 5,9 41 22 59 32 S 1015,8 26 0 0,0
14.01.2020 14:00:00 3,2 -0,3 3,2 3,5 3,3 5,9 36 19 58 32 SSW 1016,0 19 27 0,0
14.01.2020 13:00:00 3,9 -0,1 4,5 3,3 3,2 5,9 43 23 63 34 SSW 1015,9 22 48 0,0
14.01.2020 12:00:00 4,3 0,1 4,9 2,9 3,1 5,9 44 24 63 34 S 1015,8 26 27 0,0
14.01.2020 11:00:00 4,0 0,2 3,9 2,6 3,1 5,9 32 17 46 25 SSW 1016,5 22 25 0,0
14.01.2020 10:00:00 4,0 0,5 4,2 2,2 3,1 5,9 29 16 51 28 SSW 1016,5 18 29 0,0
14.01.2020 09:00:00 3,4 0,2 2,9 2,0 3,1 5,9 34 18 53 29 SSW 1016,2 18 23 0,0
14.01.2020 08:00:00 3,3 0,4 2,3 2,0 3,2 5,9 26 14 45 24 SSW 1016,6 19 0 0,0
14.01.2020 07:00:00 3,3 0,7 2,2 2,1 3,2 5,9 30 16 49 26 SSW 1016,7 17 0 0,0
14.01.2020 06:00:00 3,5 0,9 2,5 2,1 3,2 5,9 30 16 51 28 SSW 1016,7 17 0 0,0
14.01.2020 05:00:00 3,7 1,3 2,6 2,0 3,3 5,9 38 20 51 28 SSW 1016,2 17 0 0,0
14.01.2020 04:00:00 2,9 1,1 1,4 2,2 3,4 5,9 22 12 45 24 S 1016,7 13 0 0,0
14.01.2020 03:00:00 3,1 1,2 1,8 2,4 3,4 5,9 26 14 37 20 S 1017,6 12 0 0,0
14.01.2020 02:00:00 3,1 1,0 1,8 2,7 3,4 5,9 21 11 43 23 S 1018,2 12 0 0,0
14.01.2020 01:00:00 4,0 1,4 3,3 2,6 3,4 5,9 24 13 43 23 SSW 1018,5 16 0 0,0
14.01.2020 00:00:00 3,9 1,2 3,3 2,5 3,5 5,9 24 13 38 21 SW 1018,5 20 0 0,0
13.01.2020 23:00:00 3,2 0,8 2,0 2,6 3,5 5,9 22 12 41 22 S 1018,5 16 0 0,0
13.01.2020 22:00:00 3,0 0,7 2,1 2,7 3,6 5,9 24 13 39 21 S 1019,4 15 0 0,0
13.01.2020 21:00:00 3,5 0,7 3,0 2,8 3,6 5,9 31 17 48 26 SSW 1020,2 17 0 0,0
13.01.2020 20:00:00 3,6 0,7 3,0 2,9 3,7 5,9 28 15 41 22 SSW 1020,7 21 0 0,0
13.01.2020 19:00:00 3,5 0,7 2,8 3,0 3,7 5,9 27 14 42 23 S 1020,4 17 0 0,0
13.01.2020 18:00:00 3,5 0,8 2,7 3,3 3,7 6,0 20 11 30 16 SSW 1020,9 19 0 0,0
13.01.2020 17:00:00 3,6 1,0 3,0 3,5 3,7 6,0 21 11 39 21 SSW 1021,4 19 0 0,0
13.01.2020 16:00:00 3,7 1,2 3,4 3,8 3,6 6,0 24 13 34 18 SSW 1021,7 19 0 0,0
13.01.2020 15:00:00 3,8 1,0 3,8 3,9 3,5 6,0 16 9 31 17 SSW 1022,1 23 0 0,0
13.01.2020 14:00:00 3,9 1,1 4,2 3,8 3,4 6,0 21 11 34 18 SSW 1022,2 22 0 0,0
13.01.2020 13:00:00 4,3 1,4 4,8 3,6 3,3 6,0 21 11 29 16 S 1022,6 26 0 0,0
13.01.2020 12:00:00 4,0 1,2 4,5 3,2 3,2 6,0 18 10 28 15 S 1023,1 24 0 0,0
13.01.2020 11:00:00 3,8 1,2 4,1 2,8 3,1 6,0 15 8 35 19 SSW 1024,1 21 0 0,0
13.01.2020 10:00:00 3,3 1,0 3,4 2,6 3,1 6,0 22 12 32 18 SSW 1024,3 22 0 0,0
13.01.2020 09:00:00 3,0 0,8 2,8 2,5 3,1 6,0 22 12 36 19 SSW 1024,2 22 0 0,0
13.01.2020 08:00:00 2,8 0,5 2,5 2,4 3,1 6,0 26 14 37 20 SSW 1023,9 22 0 0,0
13.01.2020 07:00:00 3,0 0,7 2,6 2,4 3,1 6,0 22 12 35 19 SSW 1023,7 26 0 0,0
13.01.2020 06:00:00 3,2 0,6 2,9 2,4 3,0 6,0 21 12 29 16 SW 1023,7 26 0 0,0
13.01.2020 05:00:00 3,8 0,9 3,3 2,3 3,0 6,0 23 12 31 17 SW 1023,5 34 0 0,0
13.01.2020 04:00:00 3,8 0,8 3,3 2,2 3,0 6,0 24 13 32 17 SSW 1023,5 36 0 0,0
13.01.2020 03:00:00 3,5 0,7 3,0 2,0 3,0 6,0 22 12 29 16 SSW 1023,6 30 0 0,0
13.01.2020 02:00:00 2,7 0,3 2,2 1,9 3,1 6,0 23 12 28 15 SSW 1023,7 28 0 0,0
13.01.2020 01:00:00 2,4 0,2 1,2 2,2 3,0 6,0 23 12 29 16 SSW 1023,4 26 0 0,0
13.01.2020 00:00:00 3,5 0,9 2,4 2,2 3,0 6,0 19 10 31 17 SW 1023,2 29 0 0,0
12.01.2020 23:00:00 3,3 1,0 2,9 2,1 3,0 6,0 21 11 31 17 SW 1023,0 26 0 0,0
12.01.2020 22:00:00 3,4 -0,1 3,0 1,9 3,0 6,0 22 12 36 19 SSW 1023,1 30 0 0,0
12.01.2020 21:00:00 3,4 -0,5 2,9 1,7 3,1 6,0 24 13 47 25 SSW 1022,8 34 0 0,0
12.01.2020 20:00:00 3,2 -0,7 2,0 1,7 3,2 6,0 33 18 47 26 SSW 1022,2 34 0 0,0
12.01.2020 19:00:00 3,0 -0,8 1,7 1,9 3,2 6,0 29 16 47 25 SSW 1022,2 33 0 0,0
12.01.2020 18:00:00 3,3 -0,8 2,0 2,1 3,3 6,0 31 17 50 27 SSW 1022,1 33 0 0,0
12.01.2020 17:00:00 3,4 -0,8 2,1 2,3 3,3 6,1 35 19 59 32 SSW 1022,1 35 0 0,0
12.01.2020 16:00:00 3,4 -0,8 2,4 2,6 3,3 6,0 38 21 63 34 SSW 1021,4 36 17 0,0
12.01.2020 15:00:00 3,1 -0,8 2,4 2,8 3,2 6,0 30 16 51 28 SSW 1022,3 36 8 0,0
12.01.2020 14:00:00 3,3 -0,7 3,6 2,7 3,1 6,0 37 20 63 34 SSW 1022,9 27 30 0,0
12.01.2020 13:00:00 3,3 -1,0 3,6 2,4 3,1 6,0 36 20 61 33 SSW 1023,4 41 50 0,0
12.01.2020 12:00:00 3,1 -1,0 3,3 1,8 3,1 6,0 38 20 56 30 SSW 1024,4 39 33 0,0

tt = temperature
td = dewpoint
tt 5cm = temperature 5cm
tt -5cm = temperature -5cm
tt -20cm = temperature -20cm
tt -100cm = temperature -100cm
ff = wind speed
fx = gusts
dd = wind direction
ppp = reduced air pressure
vv = visibility
sd = sunshine duration
rr = precipitation

Next stations